Flag Weather past 2 weeks in Podgorica, Montenegro

Now
52 °F

Fog.


Feels Like: 52 °F
Forecast: 54 / 62 °F
Wind: 1 mph from Southeast

Location: Podgorica Titograd

Current Time: Nov 28, 2014 at 7:07:40 PM

Latest Report: Nov 28, 2014 at 6:30 PM


Visibility: 1 mi

Pressure: 30.09 "Hg

Humidity: 100%

Dew point: 52 °F

Location of PodgoricaLocation

Historic Weather in Podgorica — Graph

°F

Podgorica temperature yesterday

Maximum temperature yesterday: 59 °F (at 3:00 PM)
Minimum temperature yesterday: 46 °F (at 12:00 AM)
Average temperature yesterday: 50 °F

Past Weeks' High & Low Weather Summary

 TemperatureHumidityPressure
High70 °F (Nov 14, 1:30 PM)100% (Nov 13, 6:30 PM)30.33 "Hg (Nov 13, 6:30 PM)
Low36 °F (Nov 23, 6:30 AM)31% (Nov 21, 1:30 PM)29.77 "Hg (Nov 13, 6:00 PM)
Average51 °F81%30.06 "Hg
* Reported Nov 13 6:00 PM — Nov 28 6:00 PM, Podgorica, Weather by CustomWeather, © 2014

Note: Actual official high and low records may vary slightly from our data, if they occured in-between our weather recording intervals... More about our weather records

Advertising

Podgorica weather history for previous 24 hours

 ConditionsComfort  
Time TempWeatherWind HumidityBarometerVisibility
6:00 PM
Nov 28
54 °FFog.2 mph100%30.09 "Hg1 mi
5:30 PM54 °FFog.1 mph100%30.09 "Hg1 mi
5:00 PM54 °FFog.1 mph100%30.09 "Hg1 mi
4:30 PM54 °FFog.2 mph100%30.09 "Hg1 mi
4:00 PM54 °FFog.2 mph100%30.09 "Hg2 mi
3:30 PM54 °FFog.2 mph100%30.09 "Hg2 mi
3:00 PM54 °FFog.1 mph100%30.09 "Hg2 mi
2:30 PM54 °FLight rain. Fog.2 mph100%30.09 "Hg1 mi
2:00 PM54 °FLight rain. Fog.1 mph100%30.09 "Hg1 mi
1:30 PM54 °FLight rain. Fog.2 mph100%30.09 "Hg1 mi
1:00 PM54 °FRain. Fog.2 mph100%30.09 "Hg1 mi
12:30 PM54 °FFog.1 mph100%30.12 "Hg2 mi
12:00 PM54 °FFog.No wind100%30.12 "Hg1 mi
11:30 AM54 °FLight rain. Fog.1 mph100%30.12 "Hg1 mi
11:00 AM54 °FLight rain. Fog.1 mph100%30.12 "Hg1 mi
10:30 AM54 °FFog.2 mph100%30.12 "Hg1 mi
10:00 AM54 °FFog.3 mph100%30.12 "Hg1 mi
9:30 AM52 °FFog.2 mph100%30.12 "Hg1 mi
9:00 AM52 °FFog.2 mph100%30.12 "Hg1 mi
8:30 AM52 °FFog.2 mph100%30.12 "Hg1 mi
8:00 AM50 °FFog.2 mph100%30.09 "Hg1 mi
7:30 AM50 °FLight rain. Fog.2 mph100%30.09 "Hg1 mi
7:00 AM50 °FLight rain. Fog.2 mph100%30.09 "Hg1 mi
6:30 AM50 °FLight rain. Fog.1 mph100%30.09 "Hg1 mi
6:00 AM50 °FFog.1 mph100%30.07 "Hg1 mi
5:30 AM50 °FFog.1 mph100%30.07 "Hg1 mi
5:00 AM50 °FFog.1 mph100%30.07 "Hg1 mi
4:30 AM50 °FFog.1 mph100%30.07 "Hg1 mi
4:00 AM50 °FFog.1 mph100%30.07 "Hg1 mi
3:30 AM50 °FFog.2 mph100%30.07 "Hg1 mi
3:00 AM50 °FFog.1 mph100%30.07 "Hg1 mi
2:30 AM50 °FFog.No wind100%30.07 "Hg1 mi
2:00 AM50 °FFog.1 mph100%30.07 "Hg1 mi
1:30 AM50 °FFog.1 mph100%30.07 "Hg1 mi
1:00 AM50 °FFog.1 mph100%30.07 "Hg1 mi
12:30 AM50 °FFog.2 mph100%30.07 "Hg1 mi
12:00 AM50 °FFog.1 mph100%30.07 "Hg1 mi
11:30 PM
Nov 27
50 °FFog.1 mph100%30.07 "Hg1 mi
11:00 PM50 °FLight rain. Fog.2 mph100%30.07 "Hg1 mi
10:30 PM50 °FLight rain. Fog.1 mph100%30.07 "Hg1 mi
10:00 PM50 °FLight rain. Fog.No wind100%30.04 "Hg1 mi
9:30 PM50 °FLight rain. Fog.1 mph100%30.04 "Hg1 mi
9:00 PM50 °FRain. Fog.2 mph100%30.04 "Hg1 mi
8:30 PM50 °FRain. Fog.2 mph94%30.04 "Hg1 mi
8:00 PM50 °FRain. Fog.2 mph94%30.04 "Hg1 mi
7:30 PM50 °FLight rain. Fog.2 mph94%30.04 "Hg3 mi
7:00 PM50 °FPartly cloudy.2 mph94%30.04 "Hg4 mi
Weather by CustomWeather, © 2014

See weather overviewHow to use our weather pages